x

8656483 - Beaufort, Nc (bftn7) Weather Station

6:18am - Tue 22nd Jan 2019 All times are EST. -5 hours from GMT.

  • Wind
    11mph, 14mph gusts
  • Sea Temp 46°f
  • Air Temp 28°f
  • Sea Pressure 1037.8mb
  • 8656483 - Beaufort, Nc
  • 8656483 - Beaufort, Nc

More Historic Weather Station data

Upgrade to MSW Pro to gain access to the past 30 days of data for over 8000 Wavebouys and Weather Stations around the globe.

Join

Comparision Forecast

View Surf forecast
   
Tue 01/22 6:18am 11 14 mph 1037.8mb 46f 28f
6:12am 10 15 mph 1037.8mb 46f 28f
6:06am 10 16 mph 1037.8mb 46f 28f
6:00am 11 15 mph 1037.7mb 45f 28f
5:54am 10 15 mph 1037.7mb 45f 28f
5:48am 11 17 mph 1037.7mb 45f 28f
5:42am 11 16 mph 1037.7mb 45f 28f
5:36am 11 16 mph 1037.7mb 45f 28f
5:30am 13 16 mph 1037.8mb 45f 28f
5:24am 11 14 mph 1037.8mb 45f 28f
5:18am 10 14 mph 1037.7mb 45f 28f
5:12am 9 15 mph 1037.5mb 45f 28f
5:06am 13 15 mph 1037.4mb 45f 28f
5:00am 13 17 mph 1037.2mb 45f 28f
4:54am 11 16 mph 1037mb 45f 28f
4:48am 13 16 mph 1037mb 45f 28f
4:42am 10 15 mph 1037mb 45f 28f
4:36am 11 14 mph 1037.1mb 45f 28f
4:30am 10 14 mph 1037mb 45f 28f
4:24am 10 14 mph 1036.9mb 46f 28f
4:18am 9 13 mph 1037mb - -
4:12am 8 14 mph 1037mb 46f 28f
4:06am 9 14 mph 1037mb 46f 29f
4:00am 10 13 mph 1037mb 46f 28f
3:54am 10 13 mph 1036.9mb 46f 28f
3:48am 10 15 mph 1036.8mb 46f 28f
3:42am 13 15 mph 1036.9mb 46f 29f
3:36am 13 16 mph 1037mb 46f 29f
3:30am 10 14 mph 1037.1mb 47f 29f
3:24am 11 14 mph 1037.1mb 47f 28f
3:18am 11 14 mph 1036.9mb 47f 29f
3:12am 10 14 mph 1037mb 47f 28f
3:06am 11 14 mph 1036.8mb 47f 28f
3:00am 9 13 mph 1036.8mb 47f 28f
2:54am 10 13 mph 1036.8mb 47f 28f
2:48am 7 9 mph 1036.9mb 47f 28f
2:42am 6 10 mph 1036.8mb 47f 28f
2:36am 9 11 mph 1036.5mb 47f 28f
2:30am 7 9 mph 1036.6mb 47f 28f
2:24am 7 11 mph 1036.6mb 47f 28f
2:18am 9 11 mph - - -
2:12am 8 13 mph 1036.7mb 47f 29f
2:06am 10 14 mph 1036.7mb 47f 29f
2:00am 11 15 mph 1036.7mb 47f 29f
1:54am 11 14 mph 1036.7mb 47f 29f
1:48am 9 14 mph 1036.7mb 47f 29f
1:42am 10 14 mph 1036.6mb 47f 29f
1:36am 7 13 mph 1036.7mb 47f 29f
1:30am 8 11 mph 1036.8mb 47f 28f
1:24am 6 11 mph 1036.8mb 47f 28f
1:18am 9 13 mph 1036.6mb - -
1:12am 9 10 mph 1036.5mb 47f 29f
1:06am 7 11 mph 1036.4mb 47f 29f
1:00am 8 11 mph 1036.3mb 48f 29f
12:54am 8 11 mph 1036.2mb 48f 29f
12:48am 9 11 mph 1036.2mb 48f 29f
12:42am 9 15 mph 1036.2mb 48f 29f
12:36am 10 13 mph 1036.2mb 48f 29f
12:30am 5 9 mph 1036.2mb 48f 29f
12:24am 8 11 mph 1036.1mb 48f 29f
12:18am 8 13 mph 1036mb 48f 29f
12:12am 10 13 mph 1036.1mb 48f 29f
12:06am 10 14 mph 1036mb 48f 29f
12:00am 11 15 mph 1035.9mb 48f 29f
Mon 01/21 11:54pm 10 14 mph 1036mb 48f 29f
11:48pm 11 14 mph 1035.9mb 48f 29f
11:42pm 11 15 mph 1035.9mb 48f 29f
11:36pm 10 14 mph 1035.9mb 48f 29f
11:30pm 10 15 mph 1035.7mb 48f 29f
11:24pm 11 14 mph 1035.6mb 48f 29f
11:18pm 9 14 mph 1035.6mb 48f 29f
11:12pm 8 11 mph 1035.5mb 48f 29f
11:06pm 8 11 mph 1035.4mb 48f 29f
11:00pm 9 11 mph 1035.3mb 48f 29f
10:54pm 9 11 mph 1035.3mb 48f 29f
10:48pm 10 14 mph 1035.4mb 48f 29f
10:42pm 9 13 mph 1035.5mb 48f 29f
10:36pm 8 14 mph 1035.6mb 48f 29f
10:30pm 9 11 mph 1035.5mb 48f 29f
10:24pm 10 13 mph 1035.5mb 48f 29f
10:18pm 8 15 mph 1035.5mb 48f 29f
10:12pm 10 13 mph 1035.3mb 48f 29f
10:06pm 8 15 mph 1035.3mb 48f 29f
10:00pm 10 14 mph 1035.2mb 48f 29f
9:54pm 9 17 mph 1034.9mb 48f 29f
9:48pm 14 18 mph 1034.9mb 49f 29f
9:42pm 11 16 mph 1034.9mb 49f 29f
9:36pm 9 17 mph 1034.8mb 49f 29f
9:30pm 11 17 mph 1034.7mb 49f 29f
9:24pm 14 16 mph 1034.7mb 49f 29f
9:18pm 14 16 mph 1034.8mb 49f 29f
9:12pm 13 17 mph 1034.7mb 49f 29f
9:06pm 9 15 mph 1034.6mb 49f 29f
9:00pm 10 17 mph 1034.5mb 49f 29f
8:54pm 9 14 mph 1034.4mb 49f 29f
8:48pm 10 14 mph 1034.4mb 49f 29f
8:42pm 9 15 mph 1034.4mb 49f 29f
8:36pm 10 16 mph 1034.5mb 49f 29f
8:30pm 13 16 mph 1034.4mb 49f 29f
8:24pm 9 17 mph 1034.3mb 49f 30f
8:18pm 11 16 mph 1034.3mb 49f 29f
8:12pm 10 17 mph 1034.3mb 49f 29f
8:06pm 8 16 mph 1034.1mb 49f 29f
8:00pm 8 15 mph 1033.8mb 49f 30f
7:54pm 10 17 mph 1033.8mb 49f 30f
7:48pm 10 17 mph 1033.9mb 49f 30f
7:42pm 11 14 mph 1033.8mb 49f 30f
7:36pm 7 13 mph 1033.6mb 49f 30f
7:30pm 9 11 mph 1033.5mb 49f 30f
7:24pm 10 15 mph 1033.4mb 49f 30f
7:18pm 9 14 mph 1033.4mb 49f 30f
7:12pm 8 17 mph 1033.3mb 49f 29f
7:06pm 9 15 mph 1033.2mb 49f 30f
7:00pm 10 15 mph 1033.1mb 49f 30f
6:54pm 10 16 mph 1033mb 49f 30f
6:48pm 9 17 mph 1032.8mb 49f 30f
6:42pm 13 15 mph 1032.8mb 49f 30f
6:36pm 9 15 mph 1032.6mb 49f 30f
6:30pm 10 17 mph 1032.5mb - -
6:24pm 10 16 mph 1032.4mb 49f 30f
6:18pm 9 16 mph 1032.4mb 48f 30f
6:12pm 10 15 mph 1032.2mb 48f 30f
6:06pm 11 17 mph 1032.1mb 48f 30f
6:00pm 10 15 mph 1032mb 48f 30f
5:54pm 9 16 mph 1032mb 48f 30f
5:48pm 8 14 mph 1032mb 48f 30f
5:42pm 10 16 mph 1032.1mb 48f 30f
5:36pm 11 16 mph 1032.1mb 48f 30f
5:30pm 10 16 mph 1032mb 48f 30f
5:24pm 13 18 mph 1031.9mb 48f 30f
5:18pm 13 18 mph 1031.8mb 48f 30f
5:12pm 10 17 mph 1031.7mb 48f 31f
5:06pm 10 18 mph 1031.6mb 48f 31f
5:00pm 10 18 mph 1031.4mb 48f 31f
4:54pm 13 18 mph 1031.5mb 48f 31f
4:48pm 14 21 mph 1031.3mb 48f -
4:42pm 11 18 mph 1031.2mb 48f 31f
4:36pm 11 22 mph 1031.2mb 48f 31f
4:30pm 10 21 mph 1031.2mb 48f 31f
4:24pm 10 21 mph 1031.1mb 48f 31f
4:18pm 14 22 mph 1030.8mb 48f 31f
4:12pm 14 20 mph 1030.7mb 48f 31f
4:06pm 14 20 mph 1030.6mb 48f 31f
4:00pm 10 20 mph 1030.5mb 48f 31f
3:54pm 10 18 mph 1030.3mb 48f 31f
3:48pm 13 20 mph 1030.3mb 48f 31f
3:42pm 10 22 mph 1030.1mb 49f 31f
3:36pm 13 20 mph 1030mb 49f 31f
3:30pm 15 22 mph 1030mb 49f 31f
3:24pm 13 22 mph 1029.9mb 49f 31f
3:18pm 14 21 mph 1029.9mb 49f 31f
3:12pm 11 23 mph 1029.8mb 49f 31f
3:06pm 15 22 mph 1029.7mb 49f 30f
3:00pm 13 20 mph 1029.5mb 49f 30f
2:54pm 13 18 mph 1029.4mb 49f 30f
2:48pm 10 18 mph - - -
2:42pm 13 20 mph 1029mb 49f 31f
2:36pm 11 21 mph 1028.9mb 49f 31f
2:30pm 16 20 mph 1028.9mb 49f 30f
2:24pm 10 21 mph 1028.7mb 49f 31f
2:18pm 13 20 mph 1028.7mb 49f 30f
2:12pm 15 22 mph 1028.7mb 49f 30f
2:06pm 11 21 mph 1028.6mb 49f 30f
2:00pm 16 22 mph 1028.6mb 50f 30f
1:54pm 11 24 mph 1028.5mb 50f 30f
1:48pm 13 22 mph 1028.5mb 50f 31f
1:42pm 14 22 mph 1028.5mb 50f 30f
1:36pm 14 20 mph 1028.5mb 50f 30f
1:30pm 13 22 mph 1028.4mb 50f 31f
1:24pm 11 24 mph 1028.4mb 50f 30f
1:18pm 16 23 mph 1028.5mb 50f 30f
1:12pm 16 22 mph 1028.4mb 50f 30f
1:06pm 13 25 mph 1028.5mb 50f 30f
1:00pm 13 21 mph 1028.3mb 50f 30f
12:54pm 14 21 mph 1028.3mb 50f 30f
12:48pm 16 23 mph 1028.3mb 50f -
12:42pm 13 21 mph 1028.2mb 50f 31f
12:36pm 14 20 mph 1028.2mb 50f 30f
12:30pm 15 26 mph 1028.2mb 50f 29f
12:24pm 15 23 mph 1028.2mb 50f 29f
12:18pm 17 23 mph 1028.2mb - -
12:12pm 13 21 mph 1028.2mb 50f 29f
12:06pm 15 21 mph 1028.2mb 50f 29f
12:00pm 14 23 mph 1028.1mb 50f 29f
11:54am 15 22 mph 1028.4mb 50f 29f
11:48am 14 24 mph 1028.3mb 50f 29f
11:42am 18 25 mph 1028.3mb 50f 29f
11:36am 16 25 mph 1028.2mb 50f 28f
11:30am 15 22 mph 1028.1mb 50f 28f
11:24am 16 23 mph 1028.2mb 50f 28f
11:18am 16 26 mph 1028.1mb - -
11:12am 15 24 mph 1028.2mb 50f 28f
11:06am 15 25 mph 1028.3mb 50f 27f
11:00am 17 25 mph 1028.4mb 50f 28f
10:54am 16 23 mph 1028.3mb 51f 27f
10:48am 15 22 mph 1028.3mb 51f 27f
10:42am 17 23 mph 1028.3mb 51f 27f
10:36am 14 23 mph 1028.1mb 51f 27f
10:30am 15 24 mph 1028mb 51f 26f
10:24am 15 22 mph 1028.1mb 51f 27f
10:18am 16 28 mph 1028.1mb 51f 26f
10:12am 14 22 mph 1028mb 51f 27f
10:06am 15 24 mph 1028mb 51f 26f
10:00am 16 23 mph 1027.9mb 51f 26f
9:54am 16 22 mph 1027.8mb 51f 26f
9:48am 14 22 mph 1027.6mb 51f 26f
9:42am 15 23 mph 1027.5mb 51f 26f
9:36am 16 22 mph 1027.4mb 51f 26f
9:30am 14 22 mph 1027.3mb 51f 26f
9:24am 17 24 mph 1027.2mb 51f 26f
9:18am 20 26 mph 1027.1mb 51f 26f
9:12am 20 23 mph 1027mb 51f 26f
9:06am 13 21 mph 1026.8mb 51f 26f
9:00am 15 23 mph 1026.8mb 51f 26f
8:54am 17 25 mph 1026.7mb 51f 25f
8:48am 16 22 mph 1026.6mb 51f 26f
8:42am 17 25 mph 1026.4mb 51f 26f
8:36am 14 18 mph 1026.3mb 51f 26f
8:30am 14 18 mph 1026.2mb 51f 26f
8:24am 14 18 mph 1026.1mb 51f 26f
8:18am 13 21 mph - - -
8:12am 14 20 mph 1026mb 51f 26f
8:06am 13 22 mph 1025.8mb 51f 26f
8:00am 10 18 mph 1025.6mb 51f 26f
7:54am 14 18 mph 1025.5mb 51f 26f
7:48am 10 21 mph 1025.4mb - -
7:42am 13 17 mph 1025.2mb 51f 26f
7:36am 11 21 mph 1025.2mb 51f 26f
7:30am 11 17 mph 1025.1mb 51f 26f
7:24am 11 20 mph 1025mb 51f 26f
7:18am 10 15 mph 1024.9mb 51f 26f
7:12am 10 18 mph 1024.7mb 51f 26f
7:06am 11 23 mph 1024.6mb 51f 26f
7:00am 11 17 mph 1024.4mb 51f 27f
6:54am 14 18 mph 1024.2mb 51f 26f
6:48am 14 21 mph 1024.1mb 51f -
6:42am 13 18 mph 1024mb 51f 27f
6:36am 13 22 mph 1023.9mb 51f 27f
6:30am 14 22 mph 1023.9mb 51f 27f
6:24am 16 22 mph 1023.6mb 51f 27f
6:18am 13 18 mph 1023.4mb 51f 27f
6:12am 11 17 mph 1023.2mb 51f 27f
6:06am 8 17 mph 1023mb 51f 28f
6:00am 10 20 mph 1022.9mb 51f 28f
5:54am 13 20 mph 1022.8mb 51f 28f
5:48am 14 20 mph 1022.7mb - -
5:42am 13 22 mph 1022.5mb 51f 28f
5:36am 11 23 mph 1022.2mb 51f 28f
5:30am 14 23 mph 1022.2mb 51f 28f
5:24am 10 20 mph 1022mb 51f 28f
5:18am 15 23 mph 1021.9mb 51f 28f
5:12am 11 21 mph 1021.8mb 51f 28f
5:06am 11 16 mph 1021.6mb 51f 29f
5:00am 11 22 mph 1021.5mb 51f 29f
4:54am 15 22 mph 1021.4mb 51f 29f
4:48am 13 22 mph 1021.2mb 51f 29f
4:42am 15 18 mph 1021.3mb 51f 29f
4:36am 13 21 mph 1021mb 51f 29f
4:30am 13 18 mph 1021.1mb 51f 29f
4:24am 10 16 mph 1020.9mb 51f 29f
4:18am 11 16 mph 1020.9mb 51f -
4:12am 9 16 mph 1020.8mb 51f 29f
4:06am 10 21 mph 1020.5mb 51f 30f
4:00am 14 21 mph 1020.4mb 51f 30f
3:54am 15 23 mph 1020.2mb 51f 30f
3:48am 13 18 mph 1020mb 51f -
3:42am 11 18 mph 1019.7mb 51f 30f
3:36am 13 18 mph 1019.7mb 51f 30f
3:30am 14 20 mph 1019.6mb 51f 30f
3:24am 13 20 mph 1019.6mb 51f 30f
3:18am 11 21 mph 1019.3mb 51f 30f
3:12am 11 20 mph 1019.2mb 51f 30f
3:06am 14 22 mph 1019.2mb 51f 30f
3:00am 15 22 mph 1019.1mb 52f 30f
2:54am 11 18 mph 1018.8mb 52f 31f
2:48am 14 21 mph 1018.9mb 52f 31f
2:42am 14 21 mph 1018.7mb 52f 31f
2:36am 13 20 mph 1018.5mb 52f 31f
2:30am 15 22 mph 1018.7mb 52f 31f
2:24am 16 22 mph 1018.6mb 52f 31f
2:18am 14 21 mph 1018.5mb 52f 32f
2:12am 13 20 mph 1018.5mb 52f 32f
2:06am 9 15 mph 1018.4mb 52f 32f
2:00am 10 21 mph 1018.1mb - -
1:54am 13 17 mph 1017.9mb 52f 33f
1:48am 11 20 mph 1017.6mb 52f 33f
1:42am 10 16 mph 1017.6mb 52f 33f
1:36am 9 15 mph 1017.5mb 52f 33f
1:30am 9 16 mph 1017.5mb 53f 34f
1:24am 8 13 mph 1017.4mb 53f 34f
1:18am 7 11 mph 1017.1mb 53f 34f
1:12am 7 16 mph 1016.9mb 53f 34f
1:06am 10 23 mph 1016.7mb 53f 35f
1:00am 14 23 mph 1016.6mb 53f 35f
12:54am 10 17 mph 1016.5mb 53f 35f
12:48am 10 21 mph - - -
12:42am 14 18 mph 1016.5mb 53f 35f
12:36am 13 17 mph 1016.5mb 53f 35f
12:30am 13 22 mph 1016.4mb 53f 35f
12:24am 11 16 mph 1016.5mb 53f 35f
12:18am 13 18 mph 1016.4mb 53f 35f
12:12am 14 21 mph 1016.5mb 53f 35f
12:06am 14 21 mph 1016.4mb 53f 35f
12:00am 13 21 mph 1016.3mb 53f 35f
Sun 01/20 11:54pm 14 22 mph 1016.2mb 53f 36f
11:48pm 13 17 mph 1016mb 53f 36f
11:42pm 10 17 mph 1015.8mb 53f 36f
11:36pm 11 17 mph 1015.7mb 53f 36f
11:30pm 13 21 mph 1015.6mb 53f 36f
11:24pm 14 20 mph 1015.6mb 53f 37f
11:18pm 13 17 mph 1015.5mb 53f -
11:12pm 10 20 mph 1015.4mb 53f 37f
11:06pm 11 21 mph 1015.2mb 53f 37f
11:00pm 13 21 mph 1015.1mb 53f 37f
10:54pm 13 20 mph 1014.9mb 53f 37f
10:48pm 13 23 mph 1014.8mb 53f 38f
10:42pm 16 26 mph 1014.6mb 53f 38f
10:36pm 15 22 mph 1014.4mb 53f 38f
10:30pm 15 25 mph 1014.2mb 53f 38f
10:24pm 13 22 mph 1013.8mb 53f 38f
10:18pm 16 23 mph 1013.8mb 53f 38f
10:12pm 16 23 mph 1013.6mb 53f 38f
10:06pm 16 24 mph 1013.5mb 53f 39f
10:00pm 16 21 mph 1013.4mb 53f 39f
9:54pm 13 22 mph 1013.1mb 53f 39f
9:48pm 14 21 mph 1013mb 53f 40f
9:42pm 13 18 mph 1012.8mb 53f 40f
9:36pm 11 18 mph 1012.5mb 53f 40f
9:30pm 15 22 mph 1012.3mb 53f 41f
9:24pm 14 23 mph 1012.2mb 53f 41f
9:18pm 11 23 mph 1012mb 53f 42f
9:12pm 17 26 mph 1011.9mb 53f 42f
9:06pm 16 22 mph 1011.8mb 53f 42f
9:00pm 14 29 mph 1011.6mb 53f 42f
8:54pm 17 23 mph 1011.4mb 53f 43f
8:48pm 17 24 mph 1011.2mb 53f 43f
8:42pm 17 24 mph 1010.9mb 53f 43f
8:36pm 16 24 mph 1010.8mb 53f 43f
8:30pm 16 24 mph 1010.6mb 53f 44f
8:24pm 15 22 mph 1010.6mb 53f 44f
8:18pm 15 24 mph 1010.5mb - -
8:12pm 17 24 mph 1010.5mb 53f 45f
8:06pm 17 31 mph 1010.2mb 53f 45f
8:00pm 21 29 mph 1010mb 53f 46f
7:48pm 14 25 mph 1009.3mb 53f 47f
7:42pm 14 20 mph 1009.2mb 53f 47f
7:36pm 13 22 mph 1009.1mb 53f 47f
7:30pm 16 24 mph 1009mb 53f 47f
7:24pm 14 24 mph 1008.7mb 54f 47f
7:18pm 16 26 mph - - -
7:12pm 13 17 mph 1008.5mb 54f 48f
7:06pm 10 22 mph 1008.2mb 54f 48f
7:00pm 15 21 mph 1008.1mb 54f 48f
6:54pm 8 20 mph 1007.9mb 54f 48f
6:48pm 14 22 mph - - -
6:42pm 11 23 mph 1007.6mb 53f 49f
6:36pm 10 18 mph 1007.3mb 53f 49f
6:30pm 11 17 mph 1007.1mb 53f 49f
6:24pm 11 18 mph 1006.9mb 53f 49f
6:18pm 11 18 mph 1006.7mb 53f 49f
6:12pm 13 22 mph 1006.5mb 53f 49f
6:06pm 15 20 mph 1006.3mb 53f 49f
6:00pm 14 23 mph 1006mb 53f 50f
5:54pm 15 20 mph 1005.8mb 53f 50f
5:48pm 14 21 mph 1005.4mb 53f 50f
5:42pm 11 18 mph 1005.2mb 53f 51f
5:36pm 9 15 mph 1005mb 53f 51f
5:30pm 11 18 mph 1004.9mb 53f 51f
5:24pm 10 15 mph 1004.6mb 53f 51f
5:18pm 9 16 mph 1004.5mb - -
5:12pm 10 15 mph 1004.4mb 53f 51f
5:06pm 11 20 mph 1004.2mb 53f 51f
5:00pm 10 21 mph 1004.1mb 53f 51f
4:54pm 14 22 mph 1004mb 53f 51f
4:48pm 15 24 mph 1003.8mb 53f -
4:42pm 15 24 mph 1003.6mb 53f 51f
4:36pm 17 30 mph 1003.3mb 53f 51f
4:30pm 18 25 mph 1003.1mb 53f 51f
4:24pm 20 26 mph 1002.8mb 53f 51f
4:18pm 17 23 mph 1002.5mb 53f 51f
4:12pm 10 17 mph 1002.3mb 53f 51f
4:06pm 9 15 mph 1002.1mb 53f 51f
4:00pm 14 21 mph 1002mb 53f 51f
3:54pm 14 21 mph 1001.9mb 53f 51f
3:48pm 14 25 mph - - -
3:42pm 15 23 mph 1001.8mb 53f 51f
3:36pm 13 23 mph 1001.7mb 53f 51f
3:30pm 15 22 mph 1001.5mb 53f 51f
3:24pm 18 25 mph 1001.3mb 53f 51f
3:18pm 20 23 mph 1001.2mb 53f 52f
3:12pm 10 20 mph 1000.8mb 53f 54f
3:06pm 14 25 mph 1000.5mb 53f 55f
3:00pm 9 17 mph 1000.1mb 53f 58f
2:54pm 8 15 mph 999.9mb 53f 58f
2:48pm 6 17 mph 999.7mb - -
2:42pm 11 18 mph 999.6mb 53f 57f
2:36pm 14 18 mph 999.5mb 53f 57f
2:30pm 9 17 mph 999.4mb 53f 57f
2:24pm 9 18 mph 999.3mb 53f 58f
2:18pm 13 17 mph 999.2mb 53f 58f
2:12pm 10 16 mph 999.1mb 53f 58f
2:06pm 9 15 mph 999.1mb 53f 59f
2:00pm 11 22 mph 999mb 53f 59f
1:54pm 10 16 mph 999mb 53f 58f
1:48pm 8 14 mph 998.9mb 53f 58f
1:42pm 7 13 mph 998.9mb 53f 57f
1:36pm 7 15 mph 999mb 53f 58f
1:30pm 7 14 mph 998.9mb 53f 58f
1:24pm 9 13 mph 998.9mb 53f 59f
1:18pm 6 15 mph 998.9mb 53f 58f
1:12pm 8 17 mph 998.8mb 53f 58f
1:06pm 8 15 mph 998.9mb 53f 57f
1:00pm 9 21 mph 998.9mb 53f 57f
12:54pm 11 20 mph 998.9mb 53f 57f
12:48pm 8 18 mph 998.8mb 53f 58f
12:42pm 9 17 mph 998.8mb 53f 58f
12:36pm 8 13 mph 998.8mb 53f 58f
12:30pm 7 15 mph 998.9mb 53f 58f
12:24pm 10 14 mph 999mb 53f 58f
12:18pm 9 17 mph 999.1mb 53f 58f
12:12pm 9 15 mph 999.1mb 53f 58f
12:06pm 10 16 mph 999.1mb 53f 59f
12:00pm 9 14 mph 999.2mb 53f 58f
11:54am 9 14 mph 999.2mb 53f 58f
11:48am 8 14 mph 999.2mb - -
11:42am 7 13 mph 999.4mb 53f 59f
11:36am 6 11 mph 999.4mb 53f 59f
11:30am 5 11 mph 999.4mb 53f 59f
11:24am 6 10 mph 999.6mb 53f 58f
11:18am 6 10 mph 999.6mb 53f 58f
11:12am 6 10 mph 999.6mb 53f 58f
11:06am 6 14 mph 999.7mb 53f 58f
11:00am 5 11 mph 999.7mb 53f 58f
10:54am 8 17 mph 999.7mb 53f 58f
10:48am 9 17 mph 999.6mb 53f 58f
10:42am 10 15 mph 999.6mb 53f 58f
10:36am 10 16 mph 999.5mb 53f 58f
10:30am 8 17 mph 999.5mb 53f 58f
10:24am 7 15 mph 999.5mb 53f 58f
10:18am 9 15 mph 999.5mb 53f 58f
10:12am 10 17 mph 999.5mb 53f 58f
10:06am 9 15 mph 999.4mb 53f 58f
10:00am 9 14 mph 999.2mb 53f 58f
9:54am 7 14 mph 998.9mb 53f 58f
9:48am 9 13 mph 998.7mb 53f 58f
9:42am 6 11 mph 998.9mb 53f 58f
9:36am 6 13 mph 998.7mb 53f 58f
9:30am 6 13 mph 998.6mb 53f 58f
9:24am 6 15 mph 998.5mb 53f 58f
9:18am 9 15 mph 998.6mb 53f 58f
9:12am 8 14 mph 998.5mb 53f 58f
9:06am 8 17 mph 998.4mb 53f 58f
9:00am 10 16 mph 998.3mb 53f 58f
8:54am 11 16 mph 998.5mb 53f 58f
8:48am 11 14 mph 998.2mb - -
8:42am 9 13 mph 998.1mb 53f 58f
8:36am 10 15 mph 998.3mb 53f 58f
8:30am 11 17 mph 998.2mb 53f 58f
8:24am 13 17 mph 998.3mb 53f 58f
8:18am 14 17 mph - - -
8:12am 15 18 mph 998.4mb 53f 58f
8:06am 16 20 mph 998.5mb 53f 58f
8:00am 16 21 mph 998.6mb 53f 58f
7:54am 16 20 mph 998.7mb 53f 59f
7:48am 17 20 mph 998.5mb 53f 59f
7:42am 16 23 mph 998.4mb 53f 59f
7:36am 17 22 mph 998.5mb 53f 59f
7:30am 17 24 mph 998.2mb 53f 59f
7:24am 18 22 mph 997.9mb 53f 59f
7:18am 20 23 mph 997.6mb 53f 60f
7:12am 17 20 mph 997.9mb 53f 60f
7:06am 13 23 mph 998.3mb 53f 60f
7:00am 18 25 mph 998.8mb 53f 60f
6:54am 17 29 mph 999.1mb 53f 60f
6:48am 13 20 mph 999.6mb 53f 60f
6:42am 8 32 mph 999.8mb 52f 60f
6:36am 13 18 mph 999.2mb 52f 60f
6:30am 8 16 mph 999.3mb 52f 60f
6:24am 14 22 mph 999mb 52f 61f
6:18am 18 31 mph 999mb - -
6:12am 23 30 mph 998.8mb 52f 61f
6:06am 24 34 mph 998.6mb 52f 61f
6:00am 24 30 mph 998.9mb 52f 61f
5:54am 23 31 mph 999.1mb 52f 61f
5:48am 26 32 mph 999.1mb 52f 61f
5:42am 28 33 mph 999.3mb 52f 62f
5:36am 26 33 mph 999.3mb 52f 62f
5:30am 25 29 mph 999.5mb 52f 61f
5:24am 21 24 mph 999.7mb 52f 60f
5:18am 21 25 mph - - -
5:12am 20 25 mph 1000.1mb 52f 60f
5:06am 21 23 mph 1000.3mb 52f 61f
5:00am 20 24 mph 1000.5mb 52f 61f
4:54am 18 25 mph 1000.6mb 52f 61f
4:48am 21 25 mph 1000.8mb 52f -
4:42am 21 28 mph 1000.8mb 52f 61f
4:36am 23 29 mph 1001mb 52f 61f
4:30am 22 29 mph 1001.1mb 52f 61f
4:24am 23 29 mph 1001.3mb 52f 61f
4:18am 22 26 mph 1001.6mb 52f 62f
4:12am 22 25 mph 1001.5mb 52f 62f
4:06am 21 25 mph 1001.4mb 52f 61f
4:00am 22 24 mph 1001.4mb 52f 61f
3:54am 21 24 mph 1001.5mb 52f 61f
3:48am 21 25 mph 1001.5mb 52f 61f
3:42am 22 23 mph 1001.4mb 52f 61f
3:36am 20 24 mph 1001.5mb 51f 60f
3:30am 20 22 mph 1001.6mb 51f 60f
3:24am 20 22 mph 1001.7mb 51f 60f
3:18am 20 22 mph - - -
3:12am 20 22 mph 1002mb 51f 60f
3:06am 17 21 mph 1002.1mb 51f 60f
3:00am 20 21 mph 1002.1mb 51f 60f
2:54am 18 22 mph 1002.3mb 51f 60f
2:48am 18 21 mph 1002.5mb 51f 60f
2:42am 18 21 mph 1002.6mb 51f 60f
2:36am 17 21 mph 1002.7mb 51f 59f
2:30am 17 21 mph 1002.9mb 51f 59f
2:24am 18 21 mph 1003.1mb 51f 60f
2:18am 17 20 mph 1003.2mb 51f 59f
2:12am 16 18 mph 1003.4mb 51f 59f
2:06am 15 20 mph 1003.5mb 51f 59f
2:00am 15 18 mph 1003.6mb 51f 59f
1:54am 15 18 mph 1003.8mb 51f 59f
1:48am 14 17 mph 1004mb 51f 59f
1:42am 15 16 mph 1004.3mb 51f 59f
1:36am 14 16 mph 1004.4mb 51f 59f
1:30am 14 15 mph 1004.5mb 51f 58f
1:24am 14 15 mph 1004.6mb 51f 58f
1:18am 14 15 mph 1004.7mb 51f 58f
1:12am 13 15 mph 1004.8mb 51f 58f
1:06am 13 16 mph 1004.9mb 52f 58f
1:00am 14 18 mph 1005.1mb 52f 59f
12:54am 16 20 mph 1005.2mb 52f 59f
12:48am 17 20 mph 1005.4mb 52f 60f
12:42am 15 17 mph 1005.5mb 52f 59f
12:36am 13 14 mph 1005.6mb 52f 58f
12:30am 11 13 mph 1005.7mb 52f 58f
12:24am 11 14 mph 1006mb 52f 58f
12:18am 11 14 mph 1006.1mb 52f 58f
12:12am 11 14 mph 1006.3mb 52f 58f
12:06am 13 14 mph 1006.4mb 52f 58f
12:00am 13 14 mph 1006.3mb 52f 58f
Sat 01/19 11:54pm 13 15 mph 1006.4mb 52f 58f
11:48pm 14 16 mph 1006.4mb 52f 58f
11:42pm 14 15 mph 1006.5mb 52f 58f
11:36pm 13 15 mph 1006.7mb 52f 58f
11:30pm 11 14 mph 1006.8mb 52f 58f
11:24pm 11 14 mph 1006.7mb 52f 58f
11:18pm 8 13 mph 1006.8mb 52f 57f
11:12pm 10 14 mph 1006.8mb 52f 58f
11:06pm 10 13 mph 1006.9mb 52f 58f
11:00pm 10 15 mph 1007.2mb 52f 58f
10:54pm 11 15 mph 1007.3mb 51f 59f
10:48pm 10 14 mph 1007.5mb 51f -
10:42pm 10 15 mph 1007.7mb 51f 58f
10:36pm 10 14 mph 1007.8mb 51f 58f
10:30pm 10 14 mph 1007.8mb 51f 58f
10:24pm 10 14 mph 1007.9mb 51f 58f
10:18pm 10 14 mph 1007.9mb 51f 58f
10:12pm 10 15 mph 1008.1mb 51f 58f
10:06pm 11 14 mph 1008.2mb 51f 59f
10:00pm 11 15 mph 1008.2mb 51f 59f
9:54pm 10 14 mph 1008.3mb 51f 59f
9:48pm 10 15 mph 1008.5mb 51f 58f
9:42pm 11 16 mph 1008.6mb 51f 58f
9:36pm 9 11 mph 1008.7mb 51f 56f
9:30pm 10 11 mph 1008.8mb 51f 55f
9:24pm 9 13 mph 1008.7mb 51f 55f
9:18pm 10 11 mph 1008.8mb 51f 54f
9:12pm 11 13 mph 1009mb 51f 54f
9:06pm 10 11 mph 1009.1mb 51f 53f
9:00pm 10 13 mph 1009.3mb 51f 53f
8:54pm 11 13 mph 1009.4mb 51f 53f
8:48pm 10 14 mph 1009.6mb 51f 54f
8:42pm 9 13 mph 1009.8mb 51f 53f
8:36pm 10 13 mph 1010.1mb 51f 53f
8:30pm 10 11 mph 1010.2mb 51f 53f
8:24pm 11 11 mph 1010.4mb 51f 53f
8:18pm 9 11 mph 1010.4mb 51f 53f
8:12pm 9 10 mph 1010.6mb 51f 54f
8:06pm 9 9 mph 1010.6mb 51f 54f
8:00pm 7 9 mph 1010.8mb 51f 54f
7:48pm 6 7 mph 1010.9mb 52f 54f
7:42pm 6 8 mph 1011.1mb 52f 53f
7:36pm 6 8 mph 1011.3mb 52f 54f
7:30pm 8 8 mph 1011.5mb 52f 53f
7:24pm 7 8 mph 1011.5mb 52f 54f
7:18pm 7 7 mph 1011.5mb 52f 55f
7:12pm 5 6 mph 1011.5mb 52f 54f
7:06pm 5 5 mph 1011.6mb 52f 54f
7:00pm 5 6 mph 1011.7mb 52f 54f
6:54pm 6 9 mph 1011.8mb 52f 54f
6:48pm 8 9 mph 1012mb 52f -
6:42pm 6 6 mph 1011.9mb 51f 56f
6:36pm 2 2 mph 1012mb 51f 55f
6:30pm 2 2 mph 1012mb 51f 55f
6:24pm 2 2 mph 1012.1mb 51f 55f
6:18pm 2 3 mph 1012.2mb 51f 54f
6:12pm  -  6 mph 1012.4mb 51f 56f
6:06pm 6 7 mph 1012.3mb 51f 56f
6:00pm 2 6 mph 1012.3mb 51f 55f
5:54pm 5 7 mph 1012.4mb 51f 54f
5:48pm 6 8 mph 1012.3mb 51f 55f
5:42pm 6 10 mph 1012.4mb 51f 55f
5:36pm 8 11 mph 1012.4mb 51f 55f
5:30pm 7 13 mph 1012.6mb 51f 54f
5:24pm 10 14 mph 1012.5mb 51f 54f
5:18pm 10 15 mph 1012.7mb 51f 54f
5:12pm 13 16 mph 1012.8mb 51f 54f
5:06pm 14 16 mph 1013.1mb 51f 53f
5:00pm 11 15 mph 1013.5mb 51f 53f
4:54pm 11 15 mph 1013.4mb 51f 53f
4:48pm 10 11 mph 1013.7mb 51f 53f
4:42pm 8 11 mph 1013.9mb 51f 53f
4:36pm 9 11 mph 1014.1mb 51f 53f
4:30pm 8 11 mph 1014.1mb 51f 53f
4:24pm 9 11 mph 1014.2mb 51f 52f
4:18pm 9 13 mph 1014.5mb 51f 52f
4:12pm 7 9 mph 1014.7mb 51f 52f
4:06pm 7 11 mph 1014.9mb 51f 52f
4:00pm 6 8 mph 1015.1mb 51f 52f
3:54pm 6 8 mph 1015.3mb 51f 52f
3:48pm 5 7 mph 1015.5mb 51f 52f
3:42pm 6 8 mph 1015.5mb 51f 52f
3:36pm 5 9 mph 1015.5mb 51f 52f
3:30pm 7 13 mph 1015.5mb 51f 52f
3:24pm 9 10 mph 1015.6mb 51f 52f
3:18pm 7 10 mph 1015.7mb 51f 52f
3:12pm 7 10 mph 1015.8mb 51f 52f
3:06pm 8 10 mph 1015.9mb 51f 52f
3:00pm 7 9 mph 1016mb 51f 52f
2:54pm 7 9 mph 1016.1mb 51f 51f
2:48pm 7 8 mph 1016.2mb 51f 51f
2:42pm 6 8 mph 1016.3mb 50f 51f
2:36pm 5 8 mph 1016.5mb 50f 52f
2:30pm 6 7 mph 1016.6mb 50f 52f
2:24pm 6 8 mph 1016.6mb 50f 52f
2:18pm 7 8 mph 1016.6mb 50f 52f
2:12pm 6 8 mph 1016.5mb 51f 53f
2:06pm 6 7 mph 1016.6mb 51f 53f
2:00pm 5 8 mph 1016.7mb 51f 55f
1:54pm 6 10 mph 1016.7mb 51f 55f
1:48pm 8 11 mph 1016.7mb 51f 56f
1:42pm 7 11 mph 1016.7mb 51f 56f
1:36pm 8 11 mph 1016.9mb 51f 56f
1:30pm 8 11 mph 1016.9mb 51f 56f
1:24pm 7 10 mph 1017mb 51f 56f
1:18pm 7 11 mph 1017.1mb 51f 56f
1:12pm 8 13 mph 1017.2mb 51f 56f
1:06pm 8 11 mph 1017.4mb 51f 56f
1:00pm 7 10 mph 1017.4mb 51f 56f
12:54pm 8 13 mph 1017.5mb 51f 56f
12:48pm 9 13 mph 1017.6mb 51f -
12:42pm 8 14 mph 1017.7mb 51f 57f
12:36pm 8 9 mph 1017.9mb 51f 57f
12:30pm 6 13 mph 1018.1mb 51f 57f
12:24pm 9 11 mph 1018.3mb 51f 57f
12:18pm 9 10 mph 1018.4mb 51f 57f
12:12pm 7 13 mph 1018.5mb 51f 57f
12:06pm 9 11 mph 1018.7mb 51f 57f
12:00pm 8 11 mph 1018.7mb 51f 58f
11:54am 6 10 mph 1018.8mb 51f 58f
11:48am 8 13 mph - - -
11:42am 10 14 mph 1019.3mb 51f 58f
11:36am 9 10 mph 1019.4mb 51f 58f
11:30am 6 11 mph 1019.5mb 51f 58f
11:24am 8 14 mph 1019.6mb 51f 57f
11:18am 10 11 mph 1019.8mb 51f 57f
11:12am 8 11 mph 1019.9mb 51f 57f
11:06am 9 13 mph 1020mb 51f 57f
11:00am 9 11 mph 1020.1mb 51f 57f
10:54am 7 11 mph 1020mb 51f 56f
10:48am 9 15 mph - - -
10:42am 10 15 mph 1020.2mb 51f 55f
10:36am 10 14 mph 1020.2mb 51f 55f
10:30am 8 13 mph 1020.2mb 51f 55f
10:24am 9 14 mph 1020.4mb 51f 55f
10:18am 7 11 mph 1020.6mb 51f 55f
10:12am 8 10 mph 1020.7mb 51f 54f
10:06am 6 11 mph 1020.9mb 51f 54f
10:00am 9 14 mph 1020.8mb 51f 54f
9:54am 8 11 mph 1020.7mb 51f 54f
9:48am 6 10 mph 1020.6mb 51f 54f
9:42am 6 8 mph 1020.6mb 51f 53f
9:36am 8 10 mph 1020.8mb 51f 53f
9:30am 7 9 mph 1020.8mb 51f 52f
9:24am 7 9 mph 1020.7mb 51f 52f
9:18am 7 9 mph 1020.6mb 51f 51f
9:12am 6 10 mph 1020.6mb 51f 51f
9:06am 9 13 mph 1020.5mb 51f 50f
9:00am 8 13 mph 1020.6mb 51f 49f
8:54am 8 13 mph 1020.4mb 51f 49f
8:48am 8 11 mph 1020.4mb 51f 48f
8:42am 7 13 mph 1020.5mb 51f 48f
8:36am 6 9 mph 1020.6mb 51f 48f
8:30am 7 9 mph 1020.6mb 51f 47f
8:24am 7 9 mph 1020.6mb 51f 47f
8:18am 6 9 mph - - -
8:12am 6 7 mph 1020.6mb 51f 46f
8:06am 6 7 mph 1020.7mb 51f 46f
8:00am 5 5 mph 1020.9mb 51f 45f
7:54am 3 6 mph 1020.9mb 51f 45f
7:48am 3 6 mph 1020.9mb 51f 45f
7:42am 3 6 mph 1020.8mb 51f 45f
7:36am 3 6 mph 1020.8mb 51f 44f
7:30am 2 5 mph 1020.7mb 51f 44f
7:24am 3 5 mph 1020.7mb 51f 44f
7:18am 3 5 mph 1020.7mb 51f 44f
7:12am 3 5 mph 1020.6mb 51f 44f
7:06am 2 5 mph 1020.6mb 51f 44f
7:00am 5 7 mph 1020.6mb 51f 44f
6:54am 5 9 mph 1020.6mb 51f 45f
6:48am 7 9 mph 1020.4mb 51f 45f
6:42am 6 8 mph 1020.4mb 51f 45f
6:36am 6 8 mph 1020.5mb 51f 45f
6:30am 6 9 mph 1020.5mb 51f 45f
6:24am 7 8 mph 1020.5mb 51f 45f
6:18am 7 10 mph 1020.5mb 51f -
6:12am 7 8 mph 1020.5mb 51f 45f
6:06am 6 7 mph 1020.6mb 51f 45f
6:00am 6 8 mph 1020.5mb 51f 45f
5:54am 6 9 mph 1020.3mb 51f 45f
5:48am 6 7 mph 1020.5mb 51f 46f
5:42am 5 7 mph 1020.6mb 51f 46f
5:36am 5 8 mph 1020.5mb 51f 46f
5:30am 5 6 mph 1020.6mb 51f 46f
5:24am 2 5 mph 1020.7mb 51f 45f
5:18am 3 6 mph - - -
5:12am 3 3 mph 1020.7mb 51f 45f
5:06am 3 5 mph 1020.7mb 51f 45f
5:00am 3 5 mph 1020.8mb 51f 45f
4:54am 3 3 mph 1021mb 51f 46f
4:48am 3 3 mph 1021.1mb 51f 46f
4:42am 2 2 mph 1021.2mb 51f 46f
4:36am 1 3 mph 1021.2mb 51f 46f
4:30am 1 5 mph 1021.3mb 51f 46f
4:24am 2 5 mph 1021.2mb 51f 46f
4:18am 3 6 mph 1021.1mb 51f 47f
4:12am 3 5 mph 1021.2mb 51f 47f
4:06am 3 6 mph 1021.2mb 50f 47f
4:00am 3 7 mph 1021.1mb 50f 47f
3:54am 5 7 mph 1020.9mb 50f 46f
3:48am 5 8 mph 1021.1mb 50f 47f
3:42am 3 9 mph 1021.1mb 50f 47f
3:36am 7 8 mph 1021.1mb 50f 46f
3:30am 6 11 mph 1021.1mb 50f 46f
3:24am 7 10 mph 1021mb 50f 46f
3:18am 7 11 mph 1021mb 50f 46f
3:12am 8 10 mph 1021.3mb 50f 46f
3:06am 8 10 mph 1021.3mb 50f 46f
3:00am 6 7 mph 1021.5mb 50f 46f
2:54am 6 8 mph 1021.6mb 50f 46f
2:48am 6 9 mph 1021.6mb 50f 46f
2:42am 7 9 mph 1021.8mb 49f 46f
2:36am 6 7 mph 1021.7mb 49f 46f
2:30am 6 7 mph 1021.6mb 49f 46f
2:24am 5 7 mph 1021.7mb 49f 46f
2:18am 5 7 mph 1021.9mb 49f 46f
2:12am 5 7 mph 1022mb 49f 46f
2:06am 5 7 mph 1021.8mb 49f 46f
2:00am 5 8 mph 1021.7mb 49f 45f
1:54am 5 7 mph 1021.8mb 49f 45f
1:48am 6 7 mph 1021.6mb 49f 45f
1:42am 5 7 mph 1021.6mb 49f 44f
1:36am 6 7 mph 1021.6mb 49f 44f
1:30am 5 8 mph 1021.7mb 49f 44f
1:24am 7 9 mph 1021.8mb 49f 44f
1:18am 5 8 mph 1021.8mb 49f 44f
1:12am 6 9 mph 1021.8mb 49f 43f
1:06am 7 10 mph 1021.6mb 49f 43f
1:00am 8 10 mph 1021.6mb 49f 43f
12:54am 6 8 mph 1021.6mb 50f 44f
12:48am 6 6 mph - - -
12:42am 2 2 mph 1021.6mb 50f 45f
12:36am 2 3 mph 1021.6mb 50f 45f
12:30am 2 3 mph 1021.6mb 50f 45f
12:24am 1 1 mph 1021.7mb 50f 45f
12:18am  -  1 mph 1021.7mb 50f 45f
12:12am  -  2 mph 1021.7mb 50f 45f
12:06am 1 2 mph 1021.6mb 50f 45f
12:00am 1 1 mph 1021.6mb 50f 46f
Fri 01/18 11:54pm  -  0 mph 1021.7mb 50f 46f
11:48pm  -  0 mph 1021.7mb 50f 46f
11:42pm  -  0 mph 1021.7mb 50f 46f
11:36pm  -  0 mph 1021.7mb 50f 46f
11:30pm  -  1 mph 1021.6mb 50f 46f
11:24pm  -  1 mph 1021.7mb 50f 46f
11:18pm 1 1 mph 1021.7mb 50f 46f
11:12pm 1 1 mph 1021.8mb 50f 46f
11:06pm  -  1 mph 1021.7mb 50f 47f
11:00pm  -  0 mph 1021.7mb 50f 47f
10:54pm  -  0 mph 1021.6mb 50f 47f
10:48pm  -  0 mph 1021.7mb 50f 47f
10:42pm  -  0 mph 1021.6mb 50f 47f
10:36pm  -  0 mph 1021.6mb 50f 47f
10:30pm  -  0 mph 1021.6mb 50f 47f
10:24pm  -  0 mph 1021.5mb 50f 47f
10:18pm  -  0 mph 1021.5mb 50f 47f
10:12pm  -  0 mph 1021.5mb 50f 48f
10:06pm  -  0 mph 1021.6mb 50f 48f
10:00pm  -  0 mph 1021.6mb 50f 48f
9:54pm  -  0 mph 1021.6mb 50f 48f
9:48pm  -  0 mph 1021.5mb 50f 48f
9:42pm  -  0 mph 1021.5mb 50f 48f
9:36pm  -  1 mph 1021.5mb 50f 48f
9:30pm  -  1 mph 1021.4mb 50f 49f
9:24pm  -  1 mph 1021.2mb 50f 48f
9:18pm  -  1 mph 1021.1mb 50f 48f
9:12pm  -  3 mph 1021mb 50f 48f
9:06pm 2 3 mph 1020.9mb 50f 48f
9:00pm 1 1 mph 1021mb 50f 49f
8:54pm  -  1 mph 1020.9mb 50f 49f
8:48pm  -  1 mph 1021mb 50f 48f
8:42pm 1 1 mph 1020.9mb 50f 49f
8:36pm  -  1 mph 1020.8mb 50f 49f
8:30pm  -  1 mph 1020.8mb 50f 49f
8:24pm  -  0 mph 1020.8mb 50f 49f
8:18pm  -  1 mph 1020.8mb 50f 49f
8:12pm  -  0 mph 1020.8mb 50f 49f
8:06pm  -  0 mph 1020.8mb 50f 49f
8:00pm  -  1 mph 1020.8mb 51f 49f
7:54pm  -  1 mph 1020.8mb 51f 49f
7:48pm  -  2 mph 1020.8mb 51f 49f
7:42pm  -  2 mph 1020.7mb 51f 50f
7:36pm  -  3 mph 1020.6mb 51f 50f
7:30pm 1 2 mph 1020.6mb 51f 50f
7:24pm  -  1 mph 1020.6mb 51f 50f
7:18pm  -  1 mph 1020.5mb 51f 50f
7:12pm  -  2 mph 1020.5mb 51f 50f
7:06pm 1 2 mph 1020.4mb 51f 50f
7:00pm 1 2 mph 1020.4mb 51f 50f
6:54pm 1 3 mph 1020.3mb 51f 50f
6:48pm 2 3 mph 1020.3mb 51f 50f
6:42pm 1 3 mph 1020.2mb 51f 50f
6:36pm 2 3 mph 1020.2mb 51f 50f
6:30pm 2 2 mph 1020.1mb 51f 50f
6:24pm  -  1 mph 1020mb 51f 50f
6:18pm  -  2 mph 1019.9mb 51f 50f
6:12pm 1 3 mph 1020mb 51f 51f
6:06pm 2 3 mph 1019.9mb 51f 51f
6:00pm 2 3 mph 1019.8mb 51f 51f
5:54pm 2 2 mph 1019.7mb 51f 51f
5:48pm 1 3 mph 1019.6mb 51f 51f
5:42pm 2 3 mph 1019.6mb 51f 51f
5:36pm 2 2 mph 1019.4mb 51f 51f
5:30pm  -  2 mph 1019.3mb 51f 51f
5:24pm 1 3 mph 1019.3mb 51f 52f
5:18pm 2 3 mph 1019.2mb 51f 52f
5:12pm 3 5 mph 1019.2mb 51f 52f
5:06pm 3 6 mph 1019.1mb 51f 52f
5:00pm 3 5 mph 1019.1mb 51f 53f
4:54pm 2 5 mph 1019.1mb 51f 53f
4:48pm 2 6 mph 1019.1mb 51f 53f
4:42pm 2 6 mph 1019mb 51f 53f
4:36pm 2 6 mph 1019mb 51f 53f
4:30pm 3 7 mph 1019mb 51f 54f
4:24pm 6 8 mph 1018.9mb 51f 54f
4:18pm 5 8 mph - - -
4:12pm 5 9 mph 1018.9mb 50f 54f
4:06pm 6 7 mph 1018.9mb 50f 54f
4:00pm 5 9 mph 1018.8mb 50f 54f
3:54pm 5 8 mph 1018.7mb 50f 55f
3:48pm 6 8 mph 1018.7mb 50f 55f
3:42pm 6 8 mph 1018.7mb 51f 55f
3:36pm 6 7 mph 1018.7mb 50f 55f
3:30pm 6 9 mph 1018.7mb 50f 54f
3:24pm 8 9 mph 1018.7mb 50f 54f
3:18pm 8 9 mph 1018.7mb 50f 54f
3:12pm 6 9 mph 1018.7mb 50f 54f
3:06pm 8 10 mph 1018.7mb 50f 54f
3:00pm 8 9 mph 1018.6mb 50f 54f
2:54pm 7 9 mph 1018.6mb 49f 55f
2:48pm 6 8 mph 1018.6mb 49f 55f
2:42pm 6 9 mph 1018.7mb 49f 55f
2:36pm 5 8 mph 1018.7mb 49f 55f
2:30pm 6 9 mph 1018.8mb 49f 55f
2:24pm 3 6 mph 1018.8mb 49f 55f
2:18pm 3 8 mph 1018.9mb 49f 55f
2:12pm 6 7 mph 1018.9mb 49f 54f
2:06pm 3 7 mph 1018.9mb 49f 55f
2:00pm 5 7 mph 1018.8mb 49f 54f
1:54pm 6 8 mph 1018.8mb 49f 54f
1:48pm 5 7 mph 1018.9mb - -
1:42pm 6 7 mph 1019mb 49f 53f
1:36pm 3 7 mph 1019.1mb 49f 53f
1:30pm 5 8 mph 1019.2mb 49f 53f
1:24pm 6 7 mph 1019.4mb 50f 53f
1:18pm 2 5 mph 1019.5mb 50f 53f
1:12pm 2 5 mph 1019.6mb 50f 53f
1:06pm 2 6 mph 1019.7mb 50f 53f
1:00pm 5 7 mph 1019.7mb 50f 53f
12:54pm 3 5 mph 1019.7mb 50f 53f
12:48pm 2 5 mph 1019.8mb 50f 52f
12:42pm 3 7 mph 1019.9mb 50f 53f
12:36pm 3 6 mph 1020mb 50f 53f
12:30pm 3 7 mph 1020.1mb 50f 53f
12:24pm 3 7 mph 1020.1mb 50f 53f